Location: Fort Worth, Tx
(32.7431°N, 97.3695°W)
Time: 06:25:32
(UTC-05:00)

ISS - Pass Details

Date: 25 November 2019
Orbit: 411 x 421 km, 51.6° (Epoch: 08 December)

Event Time Altitude Azimuth Distance (km) Brightness Sun altitude
Rises 19:20:30 0° 274° (W) 2,345 1.5 -11.9°
Reaches altitude 10° 19:23:51 10° 311° (NW) 1,489 -0.5 -12.6°
Maximum altitude 19:24:59 11° 331° (NNW) 1,412 -0.9 -12.8°
Drops below altitude 10° 19:26:08 10° 351° (N) 1,493 -1.0 -13.0°
Enters shadow 19:27:39 - 12° (NNE) 1,803 -0.8 -13.3°
